Chicopee, MA

8:30 PM EDT on April 22, 2018 (GMT -0400)
Westover Air Reserve Base / Metropolitan Airport

Weather History for KCEF - January, 2012

Change the Weather History Date:

Tuesday, January 17, 2012

  Actual Average Record
Temperature  
Mean Temperature 36 °F -  
Max Temperature 43 °F 27 °F 44 °F (1999)
Min Temperature 30 °F 13 °F -15 °F (2009)
Degree Days  
Heating Degree Days 28    
Moisture  
Dew Point 35 °F    
Average Humidity 94    
Maximum Humidity 100    
Minimum Humidity 81    
Precipitation  
Precipitation 0.06 in - - ()
Sea Level Pressure  
Sea Level Pressure 29.81 in    
Wind  
Wind Speed 9 mph (South)    
Max Wind Speed 13 mph    
Max Gust Speed -    
Visibility 7 miles    
Events Rain , Snow    
Averages and records for this station are not official NWS values.
T = Trace of Precipitation, MM = Missing Value Source: NWS Daily Summary

Daily Weather History Graph

Daily Weather History Graph

Search for Another Location

Airport or City:

Astronomy

Jan. 17, 2012 Rise Set
Actual Time 7:15 AM EST 4:45 PM EST
Civil Twilight 6:44 AM EST 5:15 PM EST
Nautical Twilight 6:10 AM EST 5:50 PM EST
Astronomical Twilight 5:36 AM EST 6:23 PM EST
Moon 1:30 AM EST (1/17) 11:36 AM EST (1/17)
Length of Visible Light 10h 31m
Length of Day
9h 29m
Waning Crescent, 35% of the Moon is Illuminated
Jan 17
Waning Crescent
Jan 23
New
Jan 30
First Quarter
Feb 7
Full
Feb 14
Last Quarter

Hourly Weather History & Observations

Time (EST) Temp. Windchill Dew Point Humidity Pressure Visibility Wind Dir Wind Speed Gust Speed Precip Events Conditions
12:09 AM 30.2 °F 23.4 °F 28.4 °F 93% 30.14 in 10.0 mi South 6.9 mph - N/A   Overcast
12:55 AM 31.3 °F 22.1 °F 29.3 °F 92% 30.12 in 10.0 mi South 11.5 mph - 0.00 in   Overcast
1:24 AM 32.0 °F 23.6 °F 30.2 °F 93% 30.10 in 10.0 mi South 10.4 mph - N/A   Overcast
1:38 AM 32.0 °F 24.2 °F 30.2 °F 93% 30.09 in 10.0 mi South 9.2 mph - N/A   Overcast
1:51 AM 32.0 °F 24.2 °F 30.2 °F 93% 30.08 in 10.0 mi South 9.2 mph - N/A   Overcast
1:55 AM 32.0 °F 24.2 °F 30.0 °F 92% 30.08 in 10.0 mi South 9.2 mph - N/A   Overcast
1:56 AM 32.0 °F 24.2 °F 30.2 °F 93% 30.08 in 10.0 mi South 9.2 mph - N/A   Overcast
2:04 AM 32.0 °F 24.8 °F 30.2 °F 93% 30.07 in 10.0 mi South 8.1 mph - N/A   Overcast
2:17 AM 32.0 °F 23.0 °F 30.2 °F 93% 30.06 in 10.0 mi South 11.5 mph - N/A   Overcast
2:48 AM 32.0 °F 22.5 °F 30.2 °F 93% 30.05 in 10.0 mi South 12.7 mph - N/A Rain Light Rain
2:55 AM 32.5 °F 23.2 °F 30.6 °F 92% 30.05 in 7.0 mi South 12.7 mph - 0.02 in Snow Light Snow
2:57 AM 32.0 °F 23.6 °F 30.2 °F 93% 30.05 in 6.0 mi South 10.4 mph - N/A Snow Light Snow
2:58 AM 32.0 °F 24.2 °F 30.2 °F 93% 30.05 in 6.0 mi South 9.2 mph - N/A Snow Light Snow
3:06 AM 32.0 °F 23.6 °F 30.2 °F 93% 30.04 in 10.0 mi South 10.4 mph - N/A Snow Light Snow
3:23 AM 32.0 °F 23.6 °F 30.2 °F 93% 30.03 in 9.0 mi South 10.4 mph - N/A Snow Light Snow
3:25 AM 32.0 °F 24.2 °F 30.2 °F 93% 30.03 in 9.0 mi South 9.2 mph - N/A Snow Light Snow
3:37 AM 32.0 °F 22.5 °F 32.0 °F 100% 30.02 in 10.0 mi South 12.7 mph - N/A   Overcast
3:51 AM 32.0 °F 23.0 °F 30.2 °F 93% 30.02 in 10.0 mi South 11.5 mph - N/A   Overcast
3:52 AM 32.0 °F 22.5 °F 30.2 °F 93% 30.02 in 10.0 mi South 12.7 mph - N/A   Overcast
3:55 AM 32.9 °F 23.7 °F 31.1 °F 93% 30.02 in 10.0 mi South 12.7 mph - 0.00 in   Overcast
4:10 AM 33.8 °F 26.4 °F 32.0 °F 93% 30.01 in 6.0 mi South 9.2 mph - N/A Rain Light Rain
4:45 AM 33.8 °F 25.8 °F 32.0 °F 93% 30.00 in 10.0 mi South 10.4 mph - N/A   Overcast
4:51 AM 33.8 °F 25.8 °F 32.0 °F 93% 29.99 in 10.0 mi South 10.4 mph - N/A   Overcast
4:55 AM 33.1 °F 25.5 °F 31.3 °F 93% 29.99 in 10.0 mi South 9.2 mph - 0.01 in   Overcast
4:56 AM 33.8 °F 25.8 °F 32.0 °F 93% 29.99 in 10.0 mi South 10.4 mph - N/A   Overcast
5:15 AM 33.8 °F 26.4 °F 32.0 °F 93% 29.99 in 10.0 mi South 9.2 mph - N/A   Overcast
5:55 AM 33.6 °F 26.2 °F 31.3 °F 91% 29.99 in 10.0 mi South 9.2 mph - N/A   Overcast
6:04 AM 33.8 °F 26.4 °F 32.0 °F 93% 29.99 in 10.0 mi South 9.2 mph - N/A   Overcast
6:13 AM 33.8 °F 27.0 °F 32.0 °F 93% 29.99 in 10.0 mi South 8.1 mph - N/A   Overcast
6:55 AM 33.8 °F 25.8 °F 31.5 °F 91% 29.97 in 10.0 mi South 10.4 mph - N/A   Overcast
7:55 AM 34.0 °F 27.2 °F 31.6 °F 91% 29.96 in 10.0 mi South 8.1 mph - N/A   Overcast
8:15 AM 33.8 °F 27.0 °F 32.0 °F 93% 29.96 in 10.0 mi South 8.1 mph - N/A   Overcast
8:29 AM 33.8 °F 26.4 °F 32.0 °F 93% 29.96 in 10.0 mi South 9.2 mph - N/A   Overcast
8:55 AM 34.5 °F 27.9 °F 32.2 °F 91% 29.96 in 10.0 mi South 8.1 mph - N/A   Overcast
9:13 AM 35.6 °F 29.2 °F 32.0 °F 87% 29.96 in 10.0 mi South 8.1 mph - N/A   Overcast
9:18 AM 35.6 °F 29.2 °F 32.0 °F 87% 29.96 in 10.0 mi South 8.1 mph - N/A   Overcast
9:55 AM 36.0 °F 29.0 °F 32.4 °F 87% 29.95 in 10.0 mi South 9.2 mph - N/A   Overcast
9:59 AM 35.6 °F 29.2 °F 32.0 °F 87% 29.94 in 10.0 mi South 8.1 mph - N/A   Overcast
10:35 AM 37.4 °F 32.1 °F 32.0 °F 81% 29.93 in 10.0 mi South 6.9 mph - N/A   Overcast
10:55 AM 37.2 °F 30.6 °F 32.9 °F 84% 29.91 in 10.0 mi South 9.2 mph - N/A   Overcast
11:55 AM 37.2 °F 30.6 °F 33.4 °F 86% 29.85 in 10.0 mi South 9.2 mph - N/A   Overcast
12:55 PM 37.8 °F 29.8 °F 34.0 °F 86% 29.82 in 10.0 mi South 12.7 mph - N/A   Overcast
1:26 PM 37.4 °F 30.8 °F 33.8 °F 87% 29.80 in 10.0 mi South 9.2 mph - N/A   Overcast
1:52 PM 37.4 °F 30.8 °F 35.6 °F 93% 29.77 in 10.0 mi SSE 9.2 mph - N/A   Overcast
1:55 PM 37.9 °F 32.1 °F 35.4 °F 91% 29.77 in 10.0 mi South 8.1 mph - 0.00 in   Overcast
2:17 PM 37.4 °F 31.4 °F 35.6 °F 93% 29.76 in 10.0 mi South 8.1 mph - N/A   Overcast
2:26 PM 37.4 °F 31.4 °F 35.6 °F 93% 29.75 in 8.0 mi SSE 8.1 mph - N/A Rain Light Rain
2:45 PM 37.4 °F 31.4 °F 35.6 °F 93% 29.73 in 8.0 mi South 8.1 mph - N/A   Light Drizzle
2:47 PM 37.4 °F 32.1 °F 35.6 °F 93% 29.73 in 8.0 mi South 6.9 mph - N/A   Overcast
2:51 PM 37.4 °F 32.8 °F 35.6 °F 93% 29.73 in 7.0 mi South 5.8 mph - N/A   Overcast
2:52 PM 37.4 °F 32.8 °F 35.6 °F 93% 29.73 in 7.0 mi South 5.8 mph - N/A   Overcast
2:55 PM 37.9 °F 32.7 °F 36.3 °F 94% 29.73 in 7.0 mi South 6.9 mph - 0.01 in   Overcast
3:02 PM 37.4 °F 31.4 °F 35.6 °F 93% 29.73 in 8.0 mi South 8.1 mph - N/A   Overcast
3:04 PM 37.4 °F 31.4 °F 35.6 °F 93% 29.73 in 8.0 mi South 8.1 mph - N/A   Overcast
3:09 PM 37.4 °F 32.1 °F 35.6 °F 93% 29.72 in 9.0 mi South 6.9 mph - N/A   Overcast
3:33 PM 37.4 °F 32.8 °F 35.6 °F 93% 29.72 in 8.0 mi South 5.8 mph - N/A   Overcast
3:44 PM 37.4 °F 31.4 °F 35.6 °F 93% 29.71 in 8.0 mi South 8.1 mph - N/A   Overcast
3:49 PM 37.4 °F 32.1 °F 35.6 °F 93% 29.71 in 8.0 mi South 6.9 mph - N/A   Overcast
3:55 PM 38.1 °F 32.3 °F 36.3 °F 93% 29.71 in 7.0 mi South 8.1 mph - 0.00 in   Overcast
3:59 PM 37.4 °F 30.8 °F 35.6 °F 93% 29.71 in 6.0 mi South 9.2 mph - N/A   Overcast
4:09 PM 37.4 °F 30.8 °F 35.6 °F 93% 29.70 in 5.0 mi South 9.2 mph - N/A   Overcast
4:16 PM 37.4 °F 30.8 °F 37.4 °F 100% 29.70 in 5.0 mi South 9.2 mph - N/A   Overcast
4:23 PM 37.4 °F 31.4 °F 37.4 °F 100% 29.70 in 4.0 mi South 8.1 mph - N/A Rain Light Rain
4:55 PM 38.1 °F 31.7 °F 37.2 °F 97% 29.68 in 6.0 mi South 9.2 mph - 0.01 in Rain Light Rain
5:26 PM 39.2 °F 33.0 °F 37.4 °F 93% 29.67 in 8.0 mi South 9.2 mph - N/A   Overcast
5:31 PM 39.2 °F 32.0 °F 37.4 °F 93% 29.66 in 8.0 mi South 11.5 mph - N/A   Overcast
5:55 PM 38.7 °F 31.4 °F 38.1 °F 98% 29.65 in 6.0 mi South 11.5 mph - 0.01 in   Overcast
6:52 PM 39.2 °F 32.5 °F 39.2 °F 100% 29.62 in 2.5 mi South 10.4 mph - N/A   Overcast
6:55 PM 39.4 °F 32.7 °F 38.8 °F 98% 29.62 in 2.5 mi South 10.4 mph - N/A   Overcast
7:10 PM 39.2 °F 32.5 °F 39.2 °F 100% 29.61 in 2.0 mi South 10.4 mph - N/A   Overcast
7:27 PM 39.2 °F 31.6 °F 39.2 °F 100% 29.59 in 2.5 mi South 12.7 mph - N/A   Overcast
7:37 PM 39.2 °F 32.0 °F 39.2 °F 100% 29.60 in 3.0 mi South 11.5 mph - N/A   Overcast
7:55 PM 40.3 °F 34.9 °F 39.7 °F 98% 29.60 in 4.0 mi SSW 8.1 mph - N/A   Overcast
8:55 PM 40.8 °F 35.6 °F 40.3 °F 98% 29.57 in 3.0 mi South 8.1 mph - N/A   Overcast
9:04 PM 41.0 °F 35.2 °F 41.0 °F 100% 29.55 in 2.5 mi South 9.2 mph - N/A   Overcast
9:13 PM 41.0 °F 35.2 °F 41.0 °F 100% 29.55 in 2.0 mi South 9.2 mph - N/A   Overcast
9:19 PM 41.0 °F 35.2 °F 41.0 °F 100% 29.55 in 1.8 mi South 9.2 mph - N/A   Overcast
9:26 PM 41.0 °F 34.7 °F 41.0 °F 100% 29.54 in 2.0 mi South 10.4 mph - N/A   Overcast
9:39 PM 41.0 °F 35.8 °F 41.0 °F 100% 29.53 in 1.8 mi South 8.1 mph - N/A   Overcast
9:45 PM 41.0 °F 36.4 °F 41.0 °F 100% 29.53 in 1.5 mi South 6.9 mph - N/A   Overcast
9:50 PM 41.0 °F 36.4 °F 41.0 °F 100% 29.53 in 1.5 mi South 6.9 mph - N/A   Overcast
9:53 PM 41.0 °F 35.2 °F 41.0 °F 100% 29.53 in 1.5 mi South 9.2 mph - N/A   Overcast
9:55 PM 41.5 °F 36.4 °F 41.0 °F 98% 29.53 in 1.5 mi South 8.1 mph - N/A   Overcast
10:08 PM 41.0 °F 35.2 °F 41.0 °F 100% 29.52 in 1.8 mi South 9.2 mph - N/A   Overcast
10:21 PM 42.8 °F 37.5 °F 41.0 °F 93% 29.52 in 2.0 mi South 9.2 mph - N/A   Overcast
10:27 PM 42.8 °F 37.5 °F 41.0 °F 93% 29.52 in 2.5 mi South 9.2 mph - N/A   Overcast
10:36 PM 42.8 °F 37.5 °F 41.0 °F 93% 29.51 in 3.0 mi South 9.2 mph - N/A   Overcast
10:55 PM 43.0 °F 36.8 °F 42.4 °F 98% 29.50 in 4.0 mi South 11.5 mph - N/A   Overcast
11:53 PM 42.8 °F 36.6 °F 42.8 °F 100% 29.48 in 6.0 mi South 11.5 mph - N/A   Overcast
11:55 PM 43.5 °F 37.1 °F 43.0 °F 98% 29.48 in 6.0 mi South 12.7 mph - N/A   Overcast